Location: Camerons Lookout
(40.9833°S, 175.9333°E)
Time: 04:19:15
(UTC+00:00)

Cosmos 1782 Rocket - Visible Passes

Search period start: 21 April 2026 00:00
Search period end: 01 May 2026 00:00
Orbit: 599 x 625 km, 82.5° (Epoch: 20 April)

Date Brightness Start Highest point End Pass type
(mag) Time Alt. Az. Time Alt. Az. Time Alt. Az.
25 Apr 6.4 08:21:26 10° SSW 08:21:27 10° SSW 08:21:27 10° SSW visible
26 Apr 5.9 06:59:47 10° SSE 06:59:55 11° SSE 06:59:55 11° SSE visible
26 Apr 6.5 08:36:55 10° SSW 08:36:58 10° SSW 08:36:58 10° SSW visible
27 Apr 5.5 07:14:24 10° S 07:15:32 16° SSE 07:15:32 16° SSE visible
28 Apr 5.1 07:29:22 10° S 07:31:17 25° S 07:31:17 25° S visible
29 Apr 4.7 07:44:32 10° SSW 07:47:14 36° SSW 07:47:14 36° SSW visible
30 Apr 4.9 06:23:10 10° SSE 06:26:10 18° ESE 06:26:27 17° ESE visible
30 Apr 4.9 07:59:58 10° SSW 08:03:32 37° WSW 08:03:32 37° WSW visible
